DW7013 Weather Reports


time (UTC)temp
C
wind
direction
speed
KPH
gust
KPH
rain 1hr
cm
rain 24hr
cm
rain mn
cm
humidity
%
barometer
mb
20260506092209 10 104 0.0 6.4 0.03 0.84 0.03 86 1007.4
20260506091715 10 145 1.6 8.0 0.03 0.84 0.03 86 1007.5
20260506090725 10 188 1.6 0.0 0.03 0.84 0.03 86 1007.4
20260506090211 10 149 0.0 0.0 0.03 0.84 0.03 85 1007.4
20260506085709 10 151 0.0 0.0 0.03 0.84 0.03 85 1007.3
20260506085224 10 170 0.0 6.4 0.03 0.84 0.03 85 1007.3
20260506084221 11 180 0.0 6.4 0.00 0.81 0.00 84 1007.2
20260506083224 11 172 0.0 0.0 0.00 0.84 0.00 84 1007.1
20260506082717 11 169 0.0 0.0 0.00 0.84 0.00 84 1006.9
20260506081725 10 186 0.0 0.0 0.00 0.84 0.00 84 1006.8
20260506081217 10 161 0.0 0.0 0.00 0.84 0.00 85 1006.9
20260506080717 10 131 0.0 0.0 0.00 0.86 0.00 87 1006.9
20260506080216 10 333 0.0 0.0 0.00 0.86 0.00 88 1006.9
20260506073222 9 165 0.0 0.0 0.00 0.86 0.00 91 1007.2
20260506072713 9 172 0.0 0.0 0.00 0.86 0.00 92 1007.3
20260506072213 9 172 0.0 0.0 0.00 0.86 0.00 93 1007.2
20260506071727 9 160 0.0 0.0 0.00 0.86 0.00 93 1007.3
20260506071216 9 146 0.0 0.0 0.00 0.86 0.00 93 1007.2
20260506070711 9 126 0.0 0.0 0.00 0.86 0.00 94 1007.2
20260506070207 9 131 0.0 0.0 0.00 0.86 0.00 95 1007.2
20260506062221 8 144 0.0 0.0 0.00 0.86 0.00 95 1007.2
20260506061724 8 144 0.0 0.0 0.00 0.86 0.00 95 1007.3
20260506061214 8 144 0.0 0.0 0.00 0.86 0.00 95 1007.3
20260506060724 8 144 0.0 0.0 0.00 0.86 0.00 95 1007.3
20260506060225 8 67 0.0 0.0 0.00 0.86 0.00 95 1007.3
20260506051218 7 67 0.0 0.0 0.00 0.86 0.00 95 1007.3
20260506050212 7 285 0.0 0.0 0.00 0.86 0.00 95 1007.3
20260506044709 7 249 0.0 0.0 0.00 0.86 0.00 95 1007.6
20260506044218 7 249 0.0 0.0 0.00 0.86 0.00 95 1007.6
20260506043225 7 162 0.0 0.0 0.00 0.86 0.00 95 1007.6
20260506042729 7 319 0.0 0.0 0.00 0.86 0.00 95 1007.6
20260506042221 7 319 0.0 0.0 0.00 0.86 0.00 95 1007.6
20260506041724 7 319 0.0 0.0 0.00 0.86 0.00 95 1007.6
20260506040713 7 310 0.0 0.0 0.00 0.86 0.00 95 1007.6
20260506040218 7 311 0.0 0.0 0.00 0.86 0.00 95 1007.7
20260506035216 7 311 0.0 0.0 0.00 0.86 0.00 95 1007.9
20260506034722 7 111 0.0 0.0 0.00 0.86 0.00 95 1007.9
20260506033719 7 111 0.0 0.0 0.00 0.86 0.00 95 1007.9
20260506033223 7 100 0.0 0.0 0.00 0.86 0.00 95 1007.8
20260506032730 7 23 0.0 0.0 0.00 0.86 0.00 95 1007.9
20260506032228 7 23 0.0 0.0 0.00 0.86 0.00 95 1007.9
20260506031724 7 23 0.0 0.0 0.00 0.86 0.00 95 1007.9
20260506031220 7 23 0.0 0.0 0.00 0.86 0.00 95 1008.0
20260506030727 7 23 0.0 0.0 0.00 0.86 0.00 95 1007.9
20260506025715 7 23 0.0 0.0 0.00 0.86 0.00 95 1008.1
20260506024723 7 28 0.0 0.0 0.00 0.86 0.00 95 1008.1
20260506024211 7 30 0.0 0.0 0.00 0.86 0.00 95 1008.1
20260506023217 7 30 0.0 0.0 0.00 0.86 0.00 95 1008.4
20260506022706 7 0 0.0 0.0 0.00 0.86 0.00 95 1008.5
20260506022229 7 348 0.0 0.0 0.00 0.86 0.00 95 1008.4
20260506021725 7 342 0.0 0.0 0.00 0.86 0.00 95 1008.6
20260506021229 7 342 0.0 0.0 0.00 0.86 0.00 95 1008.6
20260506020730 7 103 0.0 0.0 0.00 0.86 0.00 95 1008.5
20260506020218 7 110 0.0 0.0 0.00 0.86 0.00 95 1008.5
20260506015225 7 5 0.0 0.0 0.00 0.86 0.00 95 1008.5
20260506014723 7 5 0.0 0.0 0.00 0.86 0.00 95 1008.5
20260506014230 7 5 0.0 0.0 0.00 0.86 0.00 95 1008.7
20260506013223 7 5 0.0 0.0 0.00 0.86 0.00 95 1008.9
20260506012730 7 5 0.0 0.0 0.00 0.86 0.00 95 1009.0
20260506011734 7 155 0.0 0.0 0.00 0.86 0.00 95 1009.1
20260506011214 7 155 0.0 0.0 0.00 0.86 0.00 95 1009.1
20260506010727 7 130 0.0 0.0 0.00 0.86 0.00 95 1009.2
20260506010215 7 43 0.0 0.0 0.00 0.86 0.00 94 1009.2
20260506005727 7 43 0.0 0.0 0.00 0.86 0.00 94 1009.1
20260506005232 7 43 0.0 0.0 0.00 0.86 0.00 94 1009.1
20260506004723 7 45 0.0 0.0 0.00 0.86 0.00 94 1009.1
20260506003718 7 151 0.0 0.0 0.00 0.86 0.00 94 1009.2
20260506002729 7 151 0.0 0.0 0.00 0.86 0.00 94 1009.3
20260506002213 7 150 0.0 0.0 0.00 0.86 0.00 94 1009.2
20260506001711 7 150 0.0 0.0 0.00 0.86 0.00 94 1009.2
20260506001227 7 150 0.0 0.0 0.00 0.86 0.00 94 1009.3
20260506000728 7 61 0.0 0.0 0.00 0.86 0.00 94 1009.4
20260506000211 7 355 0.0 0.0 0.00 0.86 0.00 94 1009.4
20260505235718 7 355 0.0 0.0 0.00 0.86 0.00 94 1009.5
20260505235206 7 355 0.0 0.0 0.00 0.86 0.00 94 1009.5
20260505234734 7 355 0.0 0.0 0.00 0.86 0.00 94 1009.8
20260505234209 7 355 0.0 0.0 0.00 0.86 0.00 94 1009.7
20260505233722 7 355 0.0 0.0 0.00 0.86 0.00 94 1009.8
20260505232723 7 355 0.0 0.0 0.00 0.86 0.00 94 1009.8
20260505232231 7 355 0.0 0.0 0.00 0.86 0.00 94 1009.8
20260505231711 7 355 0.0 0.0 0.00 0.86 0.00 94 1009.9
20260505231223 7 92 0.0 0.0 0.00 0.86 0.00 94 1009.9
20260505230720 7 93 0.0 0.0 0.00 0.86 0.00 94 1010.1
20260505230208 8 87 0.0 0.0 0.00 0.86 0.00 94 1010.1
20260505225719 8 88 0.0 0.0 0.00 0.86 0.00 94 1010.1
20260505225219 8 88 0.0 0.0 0.00 0.86 0.00 94 1010.0
20260505224715 8 87 0.0 0.0 0.00 0.86 0.00 94 1010.0
20260505224226 8 87 0.0 0.0 0.00 0.86 0.00 94 1009.9
20260505223724 8 115 0.0 0.0 0.00 0.86 0.00 94 1010.0
20260505222711 8 325 0.0 0.0 0.00 0.86 0.00 94 1010.0
20260505222226 8 325 0.0 0.0 0.00 0.86 0.00 94 1010.0
20260505221721 8 325 0.0 0.0 0.00 0.86 0.00 94 1010.0
20260505221225 8 325 0.0 0.0 0.00 0.86 0.00 94 1010.1
20260505220718 8 325 0.0 0.0 0.00 0.86 0.00 94 1010.1
20260505220215 8 188 0.0 0.0 0.00 0.86 0.86 94 1010.1
20260505215229 8 187 0.0 0.0 0.00 0.86 0.86 94 1010.2
20260505214714 8 180 0.0 0.0 0.00 0.86 0.86 94 1010.2
20260505213221 8 158 0.0 0.0 0.00 0.86 0.86 94 1010.2
20260505212725 8 147 0.0 0.0 0.00 0.86 0.86 94 1010.3
20260505212217 9 173 0.0 0.0 0.00 0.86 0.86 94 1010.3
20260505211707 9 173 0.0 0.0 0.00 0.86 0.86 93 1010.4
20260505211234 9 121 0.0 0.0 0.00 0.86 0.86 93 1010.2
20260505210232 9 257 0.0 0.0 0.00 0.86 0.86 93 1010.2
20260505205728 9 257 0.0 0.0 0.00 0.86 0.86 93 1010.2
20260505205218 9 140 0.0 0.0 0.00 0.86 0.86 93 1010.2
20260505204720 9 153 0.0 0.0 0.00 0.86 0.86 93 1010.2
20260505204215 9 137 0.0 0.0 0.00 0.86 0.86 93 1010.3
20260505203725 9 254 0.0 0.0 0.00 0.86 0.86 93 1010.2
20260505203214 9 255 0.0 0.0 0.00 0.86 0.86 93 1010.2
20260505202718 9 255 0.0 0.0 0.00 0.86 0.86 93 1010.2
20260505202222 9 234 0.0 0.0 0.00 0.86 0.86 93 1010.2
20260505201735 9 234 0.0 0.0 0.00 0.86 0.86 93 1010.1
20260505201213 9 235 0.0 0.0 0.00 0.86 0.86 93 1010.0
20260505200730 9 234 0.0 0.0 0.00 0.86 0.86 93 1010.0
20260505195728 9 234 0.0 0.0 0.00 0.86 0.86 92 1009.9
20260505195214 9 234 0.0 0.0 0.00 0.86 0.86 92 1009.8
20260505194721 9 348 0.0 0.0 0.00 0.86 0.86 92 1009.8
20260505194216 9 181 0.0 0.0 0.00 0.86 0.86 92 1009.9
20260505193217 10 188 0.0 0.0 0.00 0.86 0.86 91 1009.7
20260505192725 10 188 0.0 0.0 0.00 0.86 0.86 91 1009.7
20260505192217 10 132 0.0 0.0 0.03 0.86 0.86 91 1009.5
20260505191713 10 115 0.0 0.0 0.03 0.86 0.86 91 1009.8
20260505191211 10 115 0.0 0.0 0.05 0.86 0.86 91 1009.8
20260505190713 10 115 0.0 0.0 0.05 0.86 0.86 90 1009.7
20260505190222 10 115 0.0 0.0 0.10 0.86 0.86 91 1009.5
20260505185726 10 115 0.0 0.0 0.13 0.86 0.86 90 1009.5
20260505185213 10 115 0.0 8.0 0.18 0.86 0.86 90 1009.4
20260505184228 10 96 1.6 11.3 0.36 0.86 0.86 90 1009.4
20260505183713 10 164 1.6 11.3 0.36 0.86 0.86 90 1009.4
20260505183226 10 146 1.6 8.0 0.36 0.86 0.86 90 1009.5
20260505182728 10 136 3.2 8.0 0.33 0.84 0.84 90 1009.5
20260505182213 10 131 1.6 8.0 0.33 0.84 0.84 89 1009.3
20260505181714 10 142 1.6 8.0 0.33 0.81 0.81 89 1009.4
20260505181214 10 139 0.0 12.9 0.30 0.79 0.79 88 1009.7
20260505180729 10 140 1.6 16.1 0.30 0.79 0.79 87 1009.5
20260505180221 11 113 1.6 16.1 0.25 0.76 0.76 86 1009.5
20260505175214 11 40 1.6 4.8 0.15 0.64 0.64 86 1009.3
20260505174723 11 339 0.0 0.0 0.00 0.51 0.51 87 1009.4
20260505174221 11 161 0.0 0.0 0.00 0.51 0.51 86 1009.0
20260505173707 11 159 0.0 6.4 0.00 0.51 0.51 85 1009.0
20260505173223 11 162 0.0 6.4 0.00 0.51 0.51 85 1009.0
20260505172713 11 154 0.0 6.4 0.00 0.51 0.51 85 1009.0
20260505171711 11 138 0.0 4.8 0.00 0.51 0.51 85 1009.0
20260505170713 12 113 0.0 4.8 0.00 0.53 0.51 86 1008.9
20260505170207 12 139 0.0 4.8 0.00 0.53 0.51 86 1009.0
20260505165726 11 140 0.0 0.0 0.00 0.56 0.51 86 1009.0
20260505165212 11 186 0.0 0.0 0.00 0.56 0.51 86 1009.0
20260505164715 11 133 0.0 0.0 0.00 0.58 0.51 87 1009.0
20260505164207 11 123 0.0 9.7 0.00 0.58 0.51 87 1009.1
20260505163715 11 125 1.6 9.7 0.00 0.58 0.51 87 1009.2
20260505163215 11 143 1.6 9.7 0.00 0.58 0.51 87 1009.1
20260505162729 11 179 1.6 11.3 0.00 0.61 0.51 86 1009.1
20260505162227 12 132 4.8 11.3 0.00 0.61 0.51 86 1009.0
20260505161721 12 145 4.8 11.3 0.00 0.61 0.51 86 1009.0
20260505161224 12 125 3.2 9.7 0.00 0.61 0.51 87 1009.0
20260505160718 12 127 3.2 12.9 0.00 0.61 0.51 86 1009.1
20260505160228 11 109 4.8 12.9 0.00 0.61 0.51 86 1009.0
20260505152728 11 143 1.6 8.0 0.43 0.61 0.51 89 1009.0
20260505152220 11 179 1.6 8.0 0.43 0.61 0.51 88 1009.0
20260505151722 11 107 1.6 8.0 0.43 0.61 0.51 89 1009.0
20260505151209 11 167 1.6 6.4 0.43 0.61 0.51 88 1009.0
20260505150226 11 157 0.0 0.0 0.43 0.61 0.51 86 1009.1
20260505140243 15 281 6.4 16.1 0.00 0.18 0.05 66 1008.5
20260505130219 15 126 3.2 12.9 0.00 0.18 0.05 71 1008.7
20260505124720 14 111 0.0 0.0 0.00 0.18 0.05 73 1008.8
20260505124229 14 165 0.0 0.0 0.00 0.18 0.05 76 1008.7
20260505123720 14 215 0.0 0.0 0.00 0.18 0.05 77 1008.8
20260505123222 14 161 0.0 0.0 0.00 0.18 0.05 84 1008.8
20260505122719 13 171 0.0 0.0 0.00 0.18 0.05 83 1009.0
20260505122227 13 130 0.0 0.0 0.00 0.18 0.05 85 1009.0
20260505121722 12 167 0.0 0.0 0.03 0.18 0.05 85 1009.0
20260505121223 12 175 0.0 0.0 0.03 0.18 0.05 85 1009.1
20260505120719 12 179 0.0 0.0 0.03 0.18 0.05 85 1009.1
20260505120212 12 171 0.0 0.0 0.03 0.18 0.05 87 1009.1
20260505115721 12 172 0.0 0.0 0.03 0.18 0.05 87 1009.2
20260505114719 12 159 0.0 0.0 0.03 0.18 0.05 87 1009.3
20260505114207 12 171 0.0 0.0 0.03 0.18 0.05 87 1009.3
20260505113726 12 188 0.0 0.0 0.03 0.18 0.05 87 1009.4
20260505113231 12 169 0.0 0.0 0.03 0.18 0.05 87 1009.4
20260505112217 12 178 0.0 0.0 0.00 0.15 0.05 87 1009.4
20260505111721 12 161 0.0 0.0 0.00 0.15 0.05 87 1009.4
20260505111210 12 145 0.0 0.0 0.00 0.15 0.05 87 1009.5
20260505110217 12 154 0.0 0.0 0.00 0.15 0.05 86 1009.5
20260505101725 12 271 0.0 0.0 0.00 0.15 0.05 83 1009.4
20260505101210 12 271 0.0 0.0 0.00 0.15 0.05 84 1009.4
20260505100711 12 271 0.0 0.0 0.00 0.15 0.05 84 1009.4
20260505095218 11 170 0.0 0.0 0.00 0.15 0.05 85 1009.4
20260505094217 11 174 0.0 0.0 0.00 0.15 0.05 85 1009.4
20260505093722 11 177 0.0 0.0 0.00 0.15 0.05 85 1009.4
20260505093212 11 167 0.0 0.0 0.03 0.15 0.05 86 1009.4
20260505092719 11 323 0.0 0.0 0.03 0.15 0.05 86 1009.4